TimeEDT,TemperatureF,Dew PointF,Humidity,Sea Level PressureIn,VisibilityMPH,Wind Direction,Wind SpeedMPH,Gust SpeedMPH,PrecipitationIn,Events,Conditions,WindDirDegrees,DateUTC
12:54 AM,66.0,57.9,75,30.12,10.0,WSW,6.9,-,N/A,,Clear,250,2013-09-05 04:54:00
1:54 AM,64.0,57.9,80,30.12,10.0,WSW,5.8,-,N/A,,Clear,250,2013-09-05 05:54:00
2:54 AM,63.0,57.0,81,30.13,10.0,WNW,5.8,-,N/A,,Clear,290,2013-09-05 06:54:00
3:54 AM,64.0,57.9,80,30.14,10.0,West,3.5,-,N/A,,Partly Cloudy,260,2013-09-05 07:54:00
4:54 AM,64.0,57.9,80,30.14,10.0,West,5.8,-,N/A,,Scattered Clouds,270,2013-09-05 08:54:00
5:54 AM,63.0,57.9,84,30.14,10.0,West,5.8,-,N/A,,Scattered Clouds,260,2013-09-05 09:54:00
6:54 AM,62.1,57.9,86,30.15,10.0,WSW,3.5,-,N/A,,Mostly Cloudy,250,2013-09-05 10:54:00
7:54 AM,64.0,57.9,80,30.17,10.0,Calm,Calm,-,N/A,,Mostly Cloudy,0,2013-09-05 11:54:00
8:54 AM,69.1,59.0,70,30.17,10.0,Calm,Calm,-,N/A,,Mostly Cloudy,0,2013-09-05 12:54:00
9:54 AM,73.9,59.0,59,30.18,10.0,Calm,Calm,-,N/A,,Mostly Cloudy,0,2013-09-05 13:54:00
10:54 AM,79.0,57.0,47,30.19,10.0,NNE,10.4,-,N/A,,Scattered Clouds,20,2013-09-05 14:54:00
11:54 AM,80.1,55.9,43,30.19,10.0,NNE,8.1,-,N/A,,Scattered Clouds,30,2013-09-05 15:54:00
12:54 PM,80.1,57.0,45,30.19,10.0,NNE,8.1,-,N/A,,Scattered Clouds,30,2013-09-05 16:54:00
1:54 PM,82.0,57.9,44,30.18,10.0,Calm,Calm,-,N/A,,Scattered Clouds,0,2013-09-05 17:54:00
2:54 PM,84.0,57.9,41,30.17,10.0,Calm,Calm,-,N/A,,Scattered Clouds,0,2013-09-05 18:54:00
3:54 PM,87.1,59.0,39,30.15,10.0,Variable,3.5,-,N/A,,Scattered Clouds,0,2013-09-05 19:54:00
4:54 PM,84.9,59.0,41,30.15,10.0,North,6.9,-,N/A,,Scattered Clouds,10,2013-09-05 20:54:00
5:54 PM,84.0,60.1,44,30.14,10.0,NNW,5.8,-,N/A,,Scattered Clouds,330,2013-09-05 21:54:00
6:54 PM,82.9,60.1,46,30.14,10.0,NNW,8.1,-,N/A,,Scattered Clouds,340,2013-09-05 22:54:00
7:54 PM,81.0,60.1,49,30.14,10.0,North,9.2,-,N/A,,Scattered Clouds,360,2013-09-05 23:54:00
8:54 PM,78.1,62.1,58,30.15,10.0,NNE,9.2,-,N/A,,Scattered Clouds,30,2013-09-06 00:54:00
9:54 PM,75.9,60.1,58,30.16,10.0,NE,8.1,-,N/A,,Scattered Clouds,50,2013-09-06 01:54:00
10:54 PM,73.9,57.9,57,30.17,10.0,NE,8.1,-,N/A,,Partly Cloudy,50,2013-09-06 02:54:00
11:54 PM,72.0,55.9,57,30.18,10.0,NE,6.9,-,N/A,,Partly Cloudy,50,2013-09-06 03:54:00